Regional Weather Roundup
Issued by NWS Albany, NY

Home | Current Version | Previous Version | Text Only | Print | Product List | Glossary On
Versions: 1 2 3 4 5 6 7 8 9 10 11 12 13 14 15 16 17 18 19 20 21 22 23 24 25 26 27 28 29 30 31 32 33 34 35 36 37 38 39 40 41 42 43 44 45 46 47 48 49 50
000
ASUS41 KALY 271910
RWRALY

NEW YORK STATE HOURLY WEATHER ROUNDUP
NATIONAL WEATHER SERVICE ALBANY NY
200 PM EST FRI FEB 27 2015

NOTE: "FAIR" INDICATES FEW OR NO CLOUDS BELOW 12,000 FEET WITH NO
SIGNIFICANT WEATHER AND/OR NO OBSTRUCTIONS TO VISIBILITY.

NYZ032-033-038>043-046>054-057>066-NYZ062>081-272000-
EAST


CITY           SKY/WX    TMP DP  RH WIND       PRES   REMARKS
ALBANY         MOSUNNY   20   0  41 W15       30.40S WCI   6
GLENS FALLS    SUNNY     19   0  43 S8        30.37F WCI   9
POUGHKEEPSIE   SUNNY     25  -1  32 NW5       30.38F WCI  19
NEWBURGH       SUNNY     25   5  42 CALM      30.36F
MONTGOMERY     SUNNY     27   3  35 NW8       30.34F WCI  19
WHITE PLAINS   SUNNY     23   1  38 NW7       30.34F WCI  15
ISLIP          MOSUNNY   26   5  40 NW13      30.35F WCI  15
NEW YORK CITY  MOSUNNY   28   7  41 NW6       30.38F WCI  22
CENTRAL PARK   SUNNY     27   3  35 NW7       30.40S WCI  19
$$

NYZ005>009-017-018-044>046-055-056-272000-
CENTRAL


CITY           SKY/WX    TMP DP  RH WIND       PRES   REMARKS
FULTON         LGT SNOW  14   6  70 W10       30.47R VSB 1   WCI   1
SYRACUSE       FLURRIES  16   6  64 W14       30.44F WCI   2
ROME           MOSUNNY   16   1  51 W10       30.44S WCI   4
ELMIRA         SUNNY     18  -2  41 VRB3      30.40S
BINGHAMTON     SUNNY     15  -3  44 W12G17    30.32R WCI   2
MONTICELLO     SUNNY     19   0  42 W12G18    30.30S WCI   7
$$

NYZ026>034-041>043-272000-
NORTH


CITY           SKY/WX    TMP DP  RH WIND       PRES   REMARKS
WATERTOWN      SUNNY     13  -1  54 SW10G20   30.47R WCI   0
FORT DRUM      NOT AVBL
MASSENA        SUNNY     15  -7  37 W15G22    30.42F WCI   0
SARANAC LAKE   SUNNY     15 -10  32 W8        30.22S WCI   4
PLATTSBURGH    MIX PCPN  14  -4  44 SE7       30.38S WCI   4
$$

NYZ001>004-010>016-019>021-272000-
WEST


CITY           SKY/WX    TMP DP  RH WIND       PRES   REMARKS
NIAGARA FALLS  MOSUNNY   10  -1  61 W14       30.50S WCI  -6
BUFFALO        FLURRIES   9   1  70 SW17      30.50S WCI  -9
DUNKIRK        SUNNY      9  -1  64 SW12      30.54S WCI  -6
JAMESTOWN      MOSUNNY    9  -4  56 W13G18    30.41R WCI  -7
WELLSVILLE     SUNNY     13  -5  44 NW14G24   30.32R WCI  -2
ROCHESTER      MOSUNNY   14  -1  51 W15       30.48S WCI  -1
PENN YAN       SUNNY     15  -2  46 N13       30.42S WCI   1
$$

             KEY
       WCI = WIND CHILL INDEX
       VSB = VISIBILITY
       HX  = HEAT INDEX
$$



USA.gov is the U.S. government's official web portal to all federal, state and local government web resources and services.